TimeIST,TemperatureF,Dew PointF,Humidity,Sea Level PressureIn,VisibilityMPH,Wind Direction,Wind SpeedMPH,Gust SpeedMPH,PrecipitationIn,Events,Conditions,WindDirDegrees,DateUTC
12:10 AM,80.6,77.0,89,29.77,2.5,Calm,Calm,-,N/A,,Haze,0,2012-11-04 18:40:00
12:40 AM,80.6,77.0,89,29.77,2.5,Calm,Calm,-,N/A,,Haze,0,2012-11-04 19:10:00
1:10 AM,80.6,77.0,89,29.77,2.5,Calm,Calm,-,N/A,,Haze,0,2012-11-04 19:40:00
1:40 AM,80.6,77.0,89,29.74,2.5,Calm,Calm,-,N/A,,Haze,0,2012-11-04 20:10:00
2:10 AM,80.6,77.0,89,29.74,2.5,SW,3.5,-,N/A,,Haze,220,2012-11-04 20:40:00
2:30 AM,79,76,89,29.78,2,Calm,Calm,,,,Scattered Clouds,,2012-11-04 21:00:00
2:40 AM,80.6,77.0,89,29.74,2.5,Calm,Calm,-,N/A,,Haze,0,2012-11-04 21:10:00
3:40 AM,80.6,77.0,89,29.74,2.5,Calm,Calm,-,N/A,,Haze,0,2012-11-04 22:10:00
4:10 AM,78.8,77.0,94,29.74,2.5,Calm,Calm,-,N/A,,Haze,0,2012-11-04 22:40:00
4:40 AM,78.8,77.0,94,29.74,2.5,Calm,Calm,-,N/A,,Haze,0,2012-11-04 23:10:00
5:10 AM,78.8,77.0,94,29.74,2.2,Calm,Calm,-,N/A,,Haze,0,2012-11-04 23:40:00
5:30 AM,79,77,91,29.78,2,Calm,Calm,,,,Scattered Clouds,,2012-11-05 00:00:00
6:10 AM,78.8,77.0,94,29.77,1.9,Calm,Calm,-,N/A,,Haze,0,2012-11-05 00:40:00
6:40 AM,78.8,77.0,94,29.80,1.9,Calm,Calm,-,N/A,,Haze,0,2012-11-05 01:10:00
7:10 AM,80.6,77.0,89,29.80,1.9,Calm,Calm,-,N/A,,Haze,0,2012-11-05 01:40:00
7:40 AM,80.6,78.8,94,29.80,1.9,WSW,4.6,-,N/A,,Haze,240,2012-11-05 02:10:00
8:10 AM,82.4,78.8,89,29.80,1.9,SW,4.6,-,N/A,,Haze,220,2012-11-05 02:40:00
8:30 AM,84,78,76,29.85,2,SSW,2.3,,,,Haze,200,2012-11-05 03:00:00
9:10 AM,84.2,77.0,79,29.83,3.7,WSW,8.1,-,N/A,,Scattered Clouds,240,2012-11-05 03:40:00
9:40 AM,84.2,77.0,79,29.83,3.7,SSW,6.9,-,N/A,,Scattered Clouds,210,2012-11-05 04:10:00
10:10 AM,86.0,77.0,74,29.83,3.7,WSW,9.2,-,N/A,,Scattered Clouds,240,2012-11-05 04:40:00
10:40 AM,87.8,77.0,70,29.83,3.7,South,6.9,-,N/A,,Scattered Clouds,180,2012-11-05 05:10:00
11:10 AM,87.8,75.2,66,29.80,4.3,SSW,11.5,-,N/A,,Scattered Clouds,210,2012-11-05 05:40:00
11:30 AM,88,76,59,29.83,6,WSW,3.5,,,,Mostly Cloudy,250,2012-11-05 06:00:00
11:40 AM,87.8,75.2,66,29.80,4.3,SW,9.2,-,N/A,,Scattered Clouds,230,2012-11-05 06:10:00
12:10 PM,89.6,73.4,59,29.77,5.0,SSW,9.2,-,N/A,,Scattered Clouds,200,2012-11-05 06:40:00
12:40 PM,89.6,73.4,59,29.77,5.0,WSW,5.8,-,N/A,,Scattered Clouds,240,2012-11-05 07:10:00
1:10 PM,89.6,73.4,59,29.74,5.0,South,4.6,-,N/A,,Scattered Clouds,170,2012-11-05 07:40:00
1:40 PM,89.6,73.4,59,29.74,5.0,South,5.8,-,N/A,,Scattered Clouds,190,2012-11-05 08:10:00
2:10 PM,89.6,73.4,59,29.71,4.3,WSW,4.6,-,N/A,,Scattered Clouds,240,2012-11-05 08:40:00
2:30 PM,91,73,47,29.75,6,SSE,2.3,,,,Mostly Cloudy,160,2012-11-05 09:00:00
2:40 PM,91.4,73.4,55,29.71,4.3,SW,5.8,-,N/A,,Scattered Clouds,220,2012-11-05 09:10:00
3:10 PM,89.6,75.2,62,29.71,4.3,SSE,10.4,-,N/A,,Partly Cloudy,150,2012-11-05 09:40:00
3:40 PM,89.6,75.2,62,29.71,4.3,SE,9.2,-,N/A,,Partly Cloudy,140,2012-11-05 10:10:00
4:10 PM,87.8,75.2,66,29.71,4.3,SSE,10.4,-,N/A,,Partly Cloudy,150,2012-11-05 10:40:00
4:40 PM,87.8,73.4,62,29.74,3.7,SSE,6.9,-,N/A,,Partly Cloudy,150,2012-11-05 11:10:00
5:10 PM,86.0,73.4,66,29.74,3.7,SSE,9.2,-,N/A,,Partly Cloudy,160,2012-11-05 11:40:00
5:30 PM,84,74,66,29.78,6,SSE,3.5,,,,Scattered Clouds,160,2012-11-05 12:00:00
5:40 PM,84.2,73.4,70,29.74,3.7,SSE,8.1,-,N/A,,Partly Cloudy,150,2012-11-05 12:10:00
6:10 PM,84.2,75.2,74,29.77,3.7,SSE,8.1,-,N/A,,Partly Cloudy,160,2012-11-05 12:40:00
6:40 PM,82.4,75.2,79,29.77,3.7,SSE,6.9,-,N/A,,Partly Cloudy,160,2012-11-05 13:10:00
7:10 PM,82.4,75.2,79,29.77,3.1,SSE,8.1,-,N/A,,Haze,160,2012-11-05 13:40:00
7:40 PM,82.4,77.0,84,29.80,3.1,Calm,Calm,-,N/A,,Haze,0,2012-11-05 14:10:00
8:10 PM,82.4,77.0,84,29.80,3.1,SSE,3.5,-,N/A,,Haze,150,2012-11-05 14:40:00
8:30 PM,81,78,87,29.83,2,SSE,2.3,,,,Scattered Clouds,160,2012-11-05 15:00:00
8:40 PM,82.4,77.0,84,29.80,3.1,SSE,6.9,-,N/A,,Haze,160,2012-11-05 15:10:00
9:10 PM,80.6,77.0,89,29.80,3.1,SE,6.9,-,N/A,,Haze,130,2012-11-05 15:40:00
9:40 PM,80.6,77.0,89,29.83,3.1,SSE,4.6,-,N/A,,Haze,150,2012-11-05 16:10:00
10:10 PM,80.6,77.0,89,29.83,2.5,Calm,Calm,-,N/A,,Haze,0,2012-11-05 16:40:00
10:40 PM,80.6,77.0,89,29.83,2.5,Calm,Calm,-,N/A,,Haze,0,2012-11-05 17:10:00
11:10 PM,80.6,77.0,89,29.83,2.5,Calm,Calm,-,N/A,,Haze,0,2012-11-05 17:40:00
11:30 PM,80,77,87,29.85,2,SE,2.3,,,,Scattered Clouds,140,2012-11-05 18:00:00
11:40 PM,80.6,77.0,89,29.80,2.5,SSE,3.5,-,N/A,,Haze,160,2012-11-05 18:10:00